THORAD DELTA 1 DEB, 42610

Orbit data source: Space-Track

THORAD DELTA 1 DEB, 42610 is space debris in SSO originally from a launch on Fri, 15 Nov 1974 UTC launched from the Air Force Western Test Range (AFWTR). Debris objects in space refer to the collection of defunct objects orbiting the Earth. Examples of debris include non-operational satellites, rocket bodies, and fragments generated from explosions, collisions, or faulty payload assembly.

Loading next visibility...
Identifier
42610, 1974-089GB
Orbit
SSO
Country
Flag of USUS
Related business
Manufacturer
Unknown
Mission
Spacecraft
Bus & Motor
Unknown
Mass
Unknown
Launch date (UTC)
1974-11-15 (51 years ago)
Launch vehicle
Unknown
Launch site
Air Force Western Test Range (AFWTR)
Object type
Payload
Rocket body
Debris
Shape & HBR
Unknown shape, 0.1 m
Radar Cross Section
Small (<0.1 m²)

Expand to show TLE details & history
Last TLE update: 2 days ago

TLE from 2 days ago
0 THORAD DELTA 1 DEB
1 42610U 74089GB  25351.87968469 -.00000042  00000-0 -75515-5 0  9990
2 42610 101.4167 224.5494 0078121 113.9800 246.9470 12.40361045546728
Epoch: 2025-12-17T21:06Z
TLE epoch observation values (Epoch: 2025-12-17T21:06:44.757Z)
Latitude
0.00005°
Longitude
-178.8803°
Altitude
1,532.17 km
Speed
7.089 km/s
True Right ascension
14h 58m 11s
True Declination
0° 00' 00"
Sunlit
Object was in daylight at epoch
Visualization orbit readout
Latitude
Unknown
Longitude
Unknown
Altitude
Unknown
Speed
Unknown
Apparent Right ascension
Unknown
Apparent Declination
Unknown
Sunlit
N/A
Visualization observer readout
Local Sidereal Time
03:15:40
Azimuth
Unknown
Elevation
Unknown
Doppler factor
Unknown
Orbital elements
Apogee altitude
1,564.178 km
Perigee altitude
1,441.048 km
Semi-major axis
7,880.75 km
Eccentricity
0.00781
Inclination
101.4167°
RAAN
224.5494°
Arg. of periapsis
113.98°
True anomaly
246.12645°
Mean anomaly
246.947°
Eccentric anomaly
246.53641°
Mean motion
3.10236 °/min
Orbital period
116.04 mins
BSTAR
-0.0000075515
Loading maneuver chart data...
Computing Atmospheric mass density...

Documentation

Showing up to 5 results
|